This demonstration page uses our WeatherBlox Daily Observations layout. Learn more.

Left ArrowRight Arrow

Hourly Observations for December 27, 2016

Temp ( °F °C ) Dew Point ( °F °C ) Humidity (%) Winds ( mph kmh ) Pressure ( in mb ) Visibility ( mi km ) Precip ( " mm )
12:15 am 00:15 Partly Cloudy 41 5 30 -1 66 66 WNW 16 26 30.12 1020 10 16 N/A
12:34 am 00:34 Clear 39 4 30 -1 70 70 W 14 22 30.12 1020 10 16 N/A
12:55 am 00:55 Clear 39 4 30 -1 70 70 WNW 14 22 30.12 1020 10 16 N/A
1:14 am 01:14 Clear 37 3 28 -2 70 70 WNW 18 30 30.15 1021 10 16 N/A
1:34 am 01:34 Clear 37 3 28 -2 70 70 WNW 13 20 30.18 1022 10 16 N/A
1:54 am 01:54 Clear 34 1 23 -5 65 65 W 16 26 30.18 1022 10 16 N/A
2:14 am 02:14 Clear 34 1 23 -5 65 65 W 13 20 30.18 1022 10 16 N/A
2:34 am 02:34 Clear 34 1 25 -4 70 70 W 17 28 30.21 1023 10 16 N/A
2:54 am 02:54 Clear 32 undefined 25 -4 75 75 WNW 16 26 30.21 1023 10 16 N/A
3:14 am 03:14 Clear 32 undefined 25 -4 75 75 WNW 14 22 30.21 1023 10 16 N/A
3:34 am 03:34 Clear 32 undefined 23 -5 69 69 WNW 14 22 30.21 1023 10 16 N/A
3:54 am 03:54 Clear 32 undefined 21 -6 64 64 WNW 15 24 30.21 1023 10 16 N/A
4:14 am 04:14 Clear 30 -1 23 -5 75 75 W 12 19 30.21 1023 10 16 N/A
4:34 am 04:34 Clear 30 -1 23 -5 75 75 W 14 22 30.21 1023 10 16 N/A
4:54 am 04:54 Clear 30 -1 21 -6 69 69 W 12 19 30.21 1023 10 16 N/A
5:14 am 05:14 Clear 30 -1 21 -6 69 69 W 9 15 30.21 1023 10 16 N/A
5:34 am 05:34 Clear 30 -1 23 -5 75 75 WSW 9 15 30.21 1023 10 16 N/A
5:55 am 05:55 Clear 30 -1 23 -5 75 75 WSW 9 15 30.21 1023 10 16 N/A
6:14 am 06:14 Clear 30 -1 23 -5 75 75 W 10 17 30.21 1023 10 16 N/A
6:34 am 06:34 Clear 30 -1 23 -5 75 75 WSW 10 17 30.21 1023 10 16 N/A
6:54 am 06:54 Clear 30 -1 23 -5 75 75 W 12 19 30.21 1023 10 16 N/A
7:14 am 07:14 Clear 28 -2 23 -5 80 80 W 10 17 30.21 1023 10 16 N/A
7:34 am 07:34 Clear 28 -2 23 -5 80 80 WSW 14 22 30.21 1023 10 16 N/A
7:54 am 07:54 Clear 28 -2 23 -5 80 80 W 13 20 30.24 1024 10 16 N/A
8:14 am 08:14 Sunny 28 -2 23 -5 80 80 W 12 19 30.24 1024 10 16 N/A
8:35 am 08:35 Sunny 30 -1 23 -5 75 75 W 13 20 30.24 1024 10 16 N/A
8:54 am 08:54 Sunny 30 -1 23 -5 75 75 W 14 22 30.24 1024 10 16 N/A
9:14 am 09:14 Sunny 32 undefined 23 -5 69 69 W 14 22 30.24 1024 10 16 N/A
9:34 am 09:34 Sunny 32 undefined 23 -5 69 69 W 15 24 30.24 1024 10 16 N/A
9:54 am 09:54 Sunny 32 undefined 23 -5 69 69 W 14 22 30.24 1024 10 16 N/A
10:14 am 10:14 Sunny 32 undefined 23 -5 69 69 W 14 22 30.24 1024 10 16 N/A
10:34 am 10:34 Sunny 34 1 23 -5 65 65 W 14 22 30.24 1024 10 16 N/A
10:54 am 10:54 Sunny 34 1 25 -4 70 70 W 15 24 30.24 1024 10 16 N/A
11:14 am 11:14 Sunny 36 2 25 -4 65 65 W 15 24 30.24 1024 10 16 N/A
11:34 am 11:34 Sunny 36 2 25 -4 65 65 W 13 20 30.24 1024 10 16 N/A
11:54 am 11:54 Sunny 37 3 25 -4 60 60 W 12 19 30.24 1024 10 16 N/A
12:14 pm 12:14 Sunny 37 3 25 -4 60 60 W 10 17 30.24 1024 10 16 N/A
12:34 pm 12:34 Sunny 37 3 25 -4 60 60 W 12 19 30.24 1024 10 16 N/A
12:54 pm 12:54 Sunny 37 3 25 -4 60 60 W 10 17 30.21 1023 10 16 N/A
1:14 pm 13:14 Sunny 37 3 25 -4 60 60 W 15 24 30.21 1023 10 16 N/A
1:34 pm 13:34 Sunny 39 4 25 -4 56 56 W 14 22 30.21 1023 10 16 N/A
1:54 pm 13:54 Sunny 39 4 27 -3 61 61 WSW 13 20 30.21 1023 10 16 N/A
2:14 pm 14:14 Sunny 39 4 27 -3 61 61 WSW 14 22 30.21 1023 10 16 N/A
2:34 pm 14:34 Sunny 39 4 27 -3 61 61 WSW 14 22 30.21 1023 10 16 N/A
2:54 pm 14:54 Sunny 39 4 27 -3 61 61 WSW 15 24 30.21 1023 10 16 N/A
3:14 pm 15:14 Sunny 39 4 27 -3 61 61 WSW 16 26 30.21 1023 10 16 N/A
3:34 pm 15:34 Sunny 39 4 27 -3 61 61 WSW 15 24 30.21 1023 10 16 N/A
3:54 pm 15:54 Sunny 39 4 27 -3 61 61 W 15 24 30.21 1023 10 16 N/A
4:15 pm 16:15 Sunny 39 4 25 -4 56 56 WSW 15 24 30.21 1023 10 16 N/A
4:34 pm 16:34 Sunny 37 3 25 -4 60 60 WSW 14 22 30.21 1023 10 16 N/A
4:54 pm 16:54 Sunny 37 3 25 -4 60 60 WSW 14 22 30.21 1023 10 16 N/A
5:14 pm 17:14 Sunny 36 2 25 -4 65 65 WSW 12 19 30.21 1023 10 16 N/A
5:34 pm 17:34 Clear 34 1 25 -4 70 70 WSW 13 20 30.24 1024 10 16 N/A
5:54 pm 17:54 Clear 34 1 25 -4 70 70 W 10 17 30.24 1024 10 16 N/A
6:14 pm 18:14 Clear 32 undefined 25 -4 75 75 W 10 17 30.24 1024 10 16 N/A
6:34 pm 18:34 Clear 32 undefined 25 -4 75 75 W 10 17 30.24 1024 10 16 N/A
6:55 pm 18:55 Clear 32 undefined 25 -4 75 75 W 9 15 30.24 1024 10 16 N/A
7:14 pm 19:14 Clear 32 undefined 25 -4 75 75 W 10 17 30.24 1024 10 16 N/A
7:35 pm 19:35 Clear 32 undefined 25 -4 75 75 W 9 15 30.24 1024 10 16 N/A
7:54 pm 19:54 Clear 32 undefined 25 -4 75 75 W 10 17 30.24 1024 10 16 N/A
8:14 pm 20:14 Clear 32 undefined 25 -4 75 75 W 9 15 30.24 1024 10 16 N/A
8:34 pm 20:34 Clear 32 undefined 25 -4 75 75 W 9 15 30.24 1024 10 16 N/A
8:54 pm 20:54 Clear 30 -1 25 -4 80 80 W 8 13 30.24 1024 10 16 N/A
9:14 pm 21:14 Clear 30 -1 25 -4 80 80 W 8 13 30.24 1024 10 16 N/A
9:34 pm 21:34 Clear 28 -2 25 -4 86 86 W 8 13 30.24 1024 10 16 N/A
9:54 pm 21:54 Clear 28 -2 23 -5 80 80 W 7 11 30.24 1024 10 16 N/A
10:14 pm 22:14 Clear 28 -2 25 -4 86 86 W 6 9 30.24 1024 10 16 N/A
10:34 pm 22:34 Clear 28 -2 25 -4 86 86 W 6 9 30.24 1024 10 16 N/A
10:54 pm 22:54 Clear 28 -2 25 -4 86 86 WSW 5 7 30.24 1024 10 16 N/A
11:14 pm 23:14 Clear 28 -2 25 -4 86 86 W 5 7 30.24 1024 10 16 N/A
11:34 pm 23:34 Clear 27 -3 25 -4 93 93 WSW 5 7 30.24 1024 10 16 N/A
11:54 pm 23:54 Clear 28 -2 25 -4 86 86 WSW 3 6 30.24 1024 10 16 N/A

Powered by AerisWeather